Tracking 30072 objects as of 14-Jan-2025
HD Live streaming from Space Station
objects crossing your sky now

STARLINK-2602

Track STARLINK-2602 now!
10-day predictions
STARLINK-2602 is classified as:


NORAD ID: 48393
Int'l Code: 2021-038AS
Perigee: 344.1 km
Apogee: 345.8 km
Inclination: 53.1 °
Period: 91.3 minutes
Semi major axis: 6715 km
RCS: Unknown
Launch date: May 4, 2021
Source: United States (US)
Launch site: AIR FORCE EASTERN TEST RANGE (AFETR)
Your satellite tracking list
Your tracking list is empty




NASA's NSSDC Master Catalog

Two Line Element Set (TLE):
1 48393U 21038AS  25014.58334491  .01465661  00000-0  76624-2 0  9996
2 48393  53.0542  54.2377 0001264  69.3353  86.8728 15.77412019204842
Source of the keplerian elements: AFSPC